Weather History for Deer Park, WA

Change the Weather History Date:

Thursday, February 21, 2013

  Actual Average Record
Temperature  
Mean Temperature 24 °F 31 °F  
Max Temperature 34 °F 41 °F 50 °F (2003)
Min Temperature 13 °F 22 °F 9 °F (2008)
Degree Days  
Heating Degree Days 41 34  
Month to date heating degree days 734 739  
Since 1 July heating degree days 4842 5135  
Cooling Degree Days 0 0  
Month to date cooling degree days 0 0  
Year to date cooling degree days 0 0  
Moisture  
Dew Point 25 °F    
Average Humidity 92    
Maximum Humidity 100    
Minimum Humidity 84    
Precipitation  
Precipitation 0.09 in 0.04 in 0.37 in (1999)
Month to date precipitation 0.24 1.24  
Year to date precipitation 1.74 3.87  
Sea Level Pressure  
Sea Level Pressure 29.99 in    
Wind  
Wind Speed 3 mph (SE)    
Max Wind Speed 9 mph    
Max Gust Speed 12 mph    
Visibility 6 miles    
Events Fog , Snow    
T = Trace of Precipitation, MM = Missing Value Source: NWS Daily Summary

Daily Weather History Graph

Daily Weather History Graph

Search for Another Location

Airport:

Trip Planner

Search our weather history database for the weather conditions in past years. The results will help you decide how hot, cold, wet, or windy it might be!

Date:

Astronomy

Feb. 21, 2013 Rise Set
Actual Time 6:44 AM PST 5:22 PM PST
Civil Twilight 6:13 AM PST 5:53 PM PST
Nautical Twilight 5:37 AM PST 6:29 PM PST
Astronomical Twilight 5:01 AM PST 7:05 PM PST
Moon 1:30 PM PST (2/21) 4:04 AM PST (2/21)
Length of Visible Light 11h 40m
Length of Day
10h 37m
Waxing Gibbous, 84% of the Moon is Illuminated
Feb 21
Waxing Gibbous
Feb 25
Full
Mar 4
Last Quarter
Mar 11
New
Mar 19
First Quarter

Hourly Weather History & Observations

Time (PST) Temp. Windchill Dew Point Humidity Pressure Visibility Wind Dir Wind Speed Gust Speed Precip Events Conditions
12:08 AM 15.8 °F - 12.2 °F 86% 29.97 in 1.8 mi Calm Calm - N/A   Clear
12:13 AM 15.8 °F - 14.0 °F 93% 29.97 in 3.0 mi Calm Calm - N/A   Clear
12:18 AM 15.8 °F - 15.8 °F 100% 29.97 in 2.0 mi Calm Calm - N/A   Partly Cloudy
12:21 AM 15.8 °F - 15.8 °F 100% 29.97 in 1.0 mi Calm Calm - N/A   Mist
12:25 AM 15.8 °F - 15.8 °F 100% 29.97 in 0.8 mi Calm Calm - N/A   Clear
12:31 AM 12.2 °F - 10.4 °F 92% 29.97 in 2.0 mi Calm Calm - N/A   Clear
12:38 AM 15.8 °F - 12.2 °F 86% 29.97 in 10.0 mi Calm Calm - N/A   Clear
12:53 AM 15.1 °F - 12.9 °F 91% 30.05 in 8.0 mi Calm Calm - N/A   Mostly Cloudy
1:53 AM 18.0 °F - 17.1 °F 96% 30.06 in 10.0 mi Calm Calm - N/A   Overcast
2:53 AM 21.0 °F - 19.0 °F 92% 30.06 in 10.0 mi Calm Calm - N/A   Overcast
3:53 AM 23.0 °F - 21.0 °F 92% 30.06 in 10.0 mi Calm Calm - N/A   Overcast
4:53 AM 23.0 °F 17.0 °F 21.0 °F 92% 30.05 in 10.0 mi ENE 4.6 mph - N/A   Overcast
5:53 AM 19.9 °F - 18.0 °F 92% 30.06 in 10.0 mi Calm Calm - N/A   Mostly Cloudy
6:53 AM 21.9 °F - 19.9 °F 92% 30.06 in 10.0 mi Calm Calm - N/A   Overcast
7:18 AM 21.2 °F 14.9 °F 21.2 °F 100% 29.98 in 10.0 mi NNW 4.6 mph - N/A   Overcast
7:28 AM 23.0 °F 18.4 °F 21.2 °F 93% 29.98 in 10.0 mi North 3.5 mph - N/A   Overcast
7:53 AM 24.1 °F - 23.0 °F 96% 30.08 in 10.0 mi Calm Calm - N/A   Overcast
8:53 AM 27.0 °F - 25.0 °F 92% 30.07 in 10.0 mi Calm Calm - N/A   Overcast
9:00 AM 26.6 °F - 24.8 °F 93% 29.99 in 8.0 mi Calm Calm - 0.00 in Snow Light Snow
9:53 AM 28.9 °F - 26.1 °F 89% 30.07 in 10.0 mi Calm Calm - 0.00 in   Overcast
10:53 AM 30.0 °F - 27.0 °F 88% 30.06 in 8.0 mi Calm Calm - N/A   Overcast
11:03 AM 30.2 °F - 26.6 °F 86% 29.97 in 2.5 mi Calm Calm - 0.00 in Snow Light Snow
11:10 AM 30.2 °F - 26.6 °F 86% 29.97 in 0.8 mi Calm Calm - 0.00 in Snow Light Snow
11:53 AM 30.0 °F - 28.9 °F 96% 30.04 in 0.5 mi Calm Calm - 0.02 in Fog , Snow Snow
12:27 PM 30.2 °F - 28.4 °F 93% 29.95 in 0.8 mi Calm Calm - 0.03 in Snow Light Snow
12:53 PM 30.0 °F - 30.0 °F 100% 30.03 in 1.0 mi Calm Calm - 0.03 in Snow Light Snow
1:02 PM 30.2 °F - 30.2 °F 100% 29.94 in 0.8 mi Calm Calm - 0.01 in Snow Light Snow
1:26 PM 30.2 °F - 30.2 °F 100% 29.94 in 1.0 mi Calm Calm - 0.02 in Snow Light Snow
1:35 PM 30.2 °F - 30.2 °F 100% 29.94 in 0.8 mi Calm Calm - 0.02 in Snow Light Snow
1:53 PM 30.9 °F - 30.0 °F 96% 30.02 in 0.8 mi Calm Calm - 0.03 in Snow Light Snow
2:20 PM 32.0 °F - 30.2 °F 93% 29.94 in 1.0 mi Calm Calm - 0.01 in Snow Light Snow
2:27 PM 32.0 °F - 30.2 °F 93% 29.94 in 1.0 mi Calm Calm - 0.01 in Snow Light Snow
2:53 PM 33.1 °F 27.7 °F 30.9 °F 92% 30.01 in 2.5 mi South 5.8 mph - 0.01 in Snow Light Snow
3:01 PM 33.8 °F 27.0 °F 30.2 °F 87% 29.94 in 6.0 mi SSE 8.1 mph - 0.00 in   Overcast
3:25 PM 33.8 °F 27.7 °F 30.2 °F 87% 29.94 in 10.0 mi SSE 6.9 mph - 0.00 in   Overcast
3:51 PM 33.8 °F 27.7 °F 30.2 °F 87% 29.94 in 10.0 mi SSE 6.9 mph - 0.00 in   Overcast
3:53 PM 33.1 °F 26.1 °F 30.9 °F 92% 30.01 in 10.0 mi SSE 8.1 mph - 0.00 in   Overcast
4:08 PM 33.8 °F 28.6 °F 30.2 °F 87% 29.95 in 10.0 mi SSE 5.8 mph - N/A   Overcast
4:53 PM 32.0 °F 26.4 °F 30.9 °F 96% 30.01 in 10.0 mi SE 5.8 mph - N/A   Overcast
5:53 PM 30.9 °F - 30.9 °F 100% 30.02 in 4.0 mi Calm Calm - N/A   Scattered Clouds
6:10 PM 30.2 °F - 30.2 °F 100% 29.94 in 2.0 mi Calm Calm - N/A   Partly Cloudy
6:21 PM 30.2 °F - 28.4 °F 93% 29.94 in 4.0 mi Calm Calm - N/A   Mostly Cloudy
6:42 PM 28.4 °F 24.6 °F 28.4 °F 100% 29.95 in 6.0 mi ESE 3.5 mph - N/A   Overcast
6:53 PM 30.9 °F 27.5 °F 30.0 °F 96% 30.02 in 9.0 mi ESE 3.5 mph - N/A   Overcast
7:53 PM 32.0 °F 27.5 °F 30.9 °F 96% 30.01 in 10.0 mi SE 4.6 mph - N/A   Overcast
8:53 PM 33.1 °F 26.9 °F 30.9 °F 92% 30.01 in 10.0 mi SSE 6.9 mph - N/A   Overcast
9:53 PM 32.0 °F 25.6 °F 30.0 °F 92% 30.01 in 10.0 mi SSE 6.9 mph - N/A   Overcast
11:29 PM 28.4 °F 21.2 °F 28.4 °F 100% 29.94 in 10.0 mi SE 6.9 mph - N/A   Mostly Cloudy
11:53 PM 32.0 °F 25.6 °F 30.0 °F 92% 30.00 in 10.0 mi SSE 6.9 mph - N/A   Overcast